Zurück zum Katalog

STARLINK-36370

AktivKommunikationVLEO
NORAD 67937·PAYLOAD·🇺🇸 United States

Gestartet Feb 24, 2026 von Vandenberg Space Force Base

Loading…

Nächste Überflüge (nächste 24 Stunden)

TLE

AktuellSource: CelesTrak SupGP

Epoche: Sep 14, 2026, 23:14 UTC

1 67937C 26037F   26257.96854167 -.00018085  00000+0 -65506-3 0  2573
2 67937  43.0011 202.0155 0001259 260.4999 179.7836 15.27586654    15

Verfolge STARLINK-36370 in Echtzeit mit AllMySat

Download on the App Store